Miscellaneous Local Product
Issued by NWS North Platte, NE

Home | Current Version | Previous Version | Text Only | Print | Product List | Glossary On
Versions: 1 2 3 4 5 6 7 8 9 10 11 12 13 14 15 16 17 18 19 20 21 22 23 24 25 26 27 28 29 30 31 32 33 34 35 36 37 38 39 40 41 42 43 44 45 46 47 48 49 50
000
AXUS43 KLBF 292110
MISLBF


WESTERN AND NORTH CENTRAL NEBRASKA HOURLY WEATHER ROUNDUP
NATIONAL WEATHER SERVICE NORTH PLATTE NE
400 PM CDT MON SEP 29 2014

***STATIONS NOT REPORTING VARIABLES SUCH AS SKY/WEATHER OR
PRESSURE ARE PROVIDED BY THE NEBRASKA DEPARTMENT OF
ROADS...RAWS...AND APRS NETWORKS...AND ARE NOT UNDER
NATIONAL WEATHER SERVICE QUALITY CONTROL***

...OBSERVATIONS IN AND NEAR THE EASTERN PANHANDLE OF NEBRASKA...

CITY           SKY/WX    TMP DP  RH WIND       PRES   REMARKS
PINE RIDGE     CLOUDY    60  56  86 N3        29.95F
CHADRON        CLOUDY    54  53  97 N8        29.95F
ALLIANCE       CLOUDY    63  59  87 E7        29.92F
SIDNEY         CLOUDY    69  57  65 NE9       29.90F
WHITECLAY        N/A     58  55  88 E3          N/A
RUSHVILLE        N/A     57  56  97 SE13        N/A
CRESCENT LAKE    N/A     72  61  67 CALM        N/A
LISCO            N/A     73  58  58 CALM        N/A
BIG SPRINGS      N/A     76  60  56 S7          N/A
$$

...OBSERVATIONS IN NORTH CENTRAL NEBRASKA...

CITY           SKY/WX    TMP DP  RH WIND       PRES   REMARKS
VALENTINE      CLOUDY    70  57  63 E13       29.94F
THEDFORD       PTSUNNY   80  54  40 SE18G26   29.92F
AINSWORTH      CLOUDY    73  59  62 E13G18    29.94F
O`NEILL        MOSUNNY   79  63  58 E15       29.95F
ORD            CLOUDY    81  54  39 SE12      29.93F
BROKEN BOW     PTSUNNY   82  54  37 S17G26    29.93F
SPRINGVIEW       N/A     72  60  66 E9G16       N/A
ROSE             N/A     84  59  42 E16         N/A
NEWPORT          N/A     77  64  62 E14         N/A
SARGENT          N/A     79  55  43 S5          N/A
COMSTOCK         N/A     87  55  33 S17         N/A
CHAMBERS         N/A     80  55  41 S3G13       N/A
EWING            N/A     83  61  47 MISG        N/A
$$

...OBSERVATIONS IN SOUTHWEST NEBRASKA AND FAR NORTHEAST COLORADO...

CITY           SKY/WX    TMP DP  RH WIND       PRES   REMARKS
WRAY           FAIR      83  52  34 SE22G31   29.83F
HOLYOKE        LGT RAIN  79  55  44 S22G28    29.84F
IMPERIAL       MOSUNNY   81  54  39 SE25G35   29.86F
OGALLALA       CLOUDY    78  56  48 SE15G23   29.86F
NORTH PLATTE   CLOUDY    82  51  34 SE16G28   29.88F
MCCOOK         CLOUDY    81  52  36 SE16G29   29.89F
LEXINGTON      MOSUNNY   83  54  36 S17G28    29.92F
PAXTON           N/A     80  55  42 SE17        N/A
SUTHERLAND       N/A     82  48  30 S18         N/A
BRADY            N/A     79  55  43 CALM        N/A
GOTHENBURG       N/A     80  49  33 SE14        N/A
CALLAWAY         N/A     80  58  47 SE18        N/A
$$

...SOME WEATHER OBSERVATIONS FROM AROUND THE REGION...

CITY           SKY/WX    TMP DP  RH WIND       PRES   REMARKS
DENVER         TSTM      63  49  60 N14G28    29.88F
LARAMIE        PTSUNNY   55  43  63 SE14      29.96F
CHEYENNE       CLOUDY    62  45  53 E13       29.94F
SCOTTSBLUFF    CLOUDY    64  56  75 E7        29.92F
RAPID CITY     LGT RAIN  50  49  96 S5        29.99F FOG
PIERRE         CLOUDY    62  53  72 NE10      29.99F
WINNER         CLOUDY    65  58  78 E14       29.97F
SIOUX FALLS    PTSUNNY   69  59  70 E12       30.03F
OMAHA          MOSUNNY   83  57  41 S5        29.97F
GRAND ISLAND   SUNNY     83  52  34 S13       29.96F
KANSAS CITY    MOSUNNY   83  59  44 VRB7      29.99F
WICHITA        MOSUNNY   86  54  33 SE10      29.95F
HAYS           SUNNY     82  54  36 S20       29.93F
LIBERAL        SUNNY     84  54  34 S22G30    29.94F
GOODLAND       PTSUNNY   82  54  37 S30G37    29.87F
$$



USA.gov is the U.S. government's official web portal to all federal, state and local government web resources and services.